Weather History for Gillette, WY

Change the Weather History Date:

Friday, May 24, 2013

  Actual Average Record
Temperature  
Mean Temperature 59 °F 55 °F  
Max Temperature 75 °F 68 °F 87 °F (1926)
Min Temperature 42 °F 42 °F 26 °F (2002)
Degree Days  
Heating Degree Days 6 10  
Month to date heating degree days 283 321  
Since 1 July heating degree days 7245 7337  
Cooling Degree Days 0 0  
Month to date cooling degree days 8 0  
Year to date cooling degree days 8 0  
Growing Degree Days 13 (Base 50)    
Moisture  
Dew Point 48 °F    
Average Humidity 64    
Maximum Humidity 93    
Minimum Humidity 35    
Precipitation  
Precipitation 0.00 in 0.09 in 5.21 in (2014)
Month to date precipitation 1.12 1.86  
Year to date precipitation 4.24 5.07  
Sea Level Pressure  
Sea Level Pressure 29.81 in    
Wind  
Wind Speed 12 mph (East)    
Max Wind Speed 39 mph    
Max Gust Speed 51 mph    
Visibility 10 miles    
Events      
T = Trace of Precipitation, MM = Missing Value Source: NWS Daily Summary

Daily Weather History Graph

Daily Weather History Graph

Search for Another Location

Airport:

Trip Planner

Search our weather history database for the weather conditions in past years. The results will help you decide how hot, cold, wet, or windy it might be!

Date:

Astronomy

May. 24, 2013 Rise Set
Actual Time 5:26 AM MDT 8:32 PM MDT
Civil Twilight 4:51 AM MDT 9:07 PM MDT
Nautical Twilight 4:06 AM MDT 9:52 PM MDT
Astronomical Twilight 3:12 AM MDT 10:46 PM MDT
Moon 8:16 PM MDT (5/24) 5:02 AM MDT (5/24)
Length of Visible Light 16h 15m
Length of Day
15h 06m
Full, 100% of the Moon is Illuminated
May 24
Full
May 24
Full
May 31
Last Quarter
Jun 8
New
Jun 16
First Quarter

Hourly Weather History & Observations

Time (MDT) Temp. Dew Point Humidity Pressure Visibility Wind Dir Wind Speed Gust Speed Precip Events Conditions
12:53 AM 57.0 °F 46.9 °F 69% 29.69 in 10.0 mi SSE 35.7 mph 46.0 mph N/A   Clear
1:53 AM 55.9 °F 46.9 °F 72% 29.70 in 10.0 mi SSE 26.5 mph 42.6 mph N/A   Clear
2:53 AM 55.0 °F 46.9 °F 74% 29.67 in 10.0 mi SSE 28.8 mph 41.4 mph N/A   Clear
3:53 AM 54.0 °F 46.9 °F 77% 29.68 in 10.0 mi SSE 27.6 mph 38.0 mph N/A   Clear
4:53 AM 54.0 °F 48.0 °F 80% 29.68 in 10.0 mi South 26.5 mph 31.1 mph N/A   Clear
5:53 AM 53.1 °F 48.0 °F 83% 29.75 in 10.0 mi South 19.6 mph 31.1 mph N/A   Clear
6:53 AM 55.0 °F 48.9 °F 80% 29.76 in 10.0 mi South 16.1 mph - N/A   Clear
7:53 AM 59.0 °F 50.0 °F 72% 29.78 in 10.0 mi South 16.1 mph 23.0 mph N/A   Clear
8:53 AM 63.0 °F 51.1 °F 65% 29.79 in 10.0 mi SW 9.2 mph - N/A   Clear
9:53 AM 61.0 °F 51.1 °F 70% 29.86 in 10.0 mi NW 17.3 mph 26.5 mph N/A   Mostly Cloudy
10:00 AM 60.8 °F 51.8 °F 72% 29.93 in 10.0 mi NNW 17.3 mph - N/A   Mostly Cloudy
10:53 AM 62.1 °F 50.0 °F 65% 29.86 in 10.0 mi NNW 11.5 mph - N/A   Scattered Clouds
11:00 AM 62.6 °F 50.0 °F 63% 29.95 in 10.0 mi NNW 12.7 mph - N/A   Mostly Cloudy
11:28 AM 64.4 °F 50.0 °F 59% 29.95 in 10.0 mi NNW 10.4 mph 17.3 mph N/A   Partly Cloudy
11:53 AM 63.0 °F 50.0 °F 63% 29.87 in 10.0 mi NNW 6.9 mph 16.1 mph N/A   Scattered Clouds
12:53 PM 66.9 °F 48.0 °F 51% 29.87 in 10.0 mi Variable 5.8 mph - N/A   Clear
1:53 PM 71.1 °F 46.9 °F 42% 29.85 in 10.0 mi Variable 5.8 mph - N/A   Clear
2:53 PM 72.0 °F 46.0 °F 40% 29.84 in 10.0 mi NNE 8.1 mph - N/A   Clear
3:53 PM 73.0 °F 44.1 °F 35% 29.83 in 10.0 mi ESE 6.9 mph - N/A   Partly Cloudy
4:53 PM 73.9 °F 46.9 °F 38% 29.81 in 10.0 mi NE 11.5 mph 17.3 mph N/A   Partly Cloudy
5:53 PM 73.0 °F 46.9 °F 39% 29.81 in 10.0 mi ENE 12.7 mph 20.7 mph N/A   Clear
6:53 PM 72.0 °F 46.0 °F 40% 29.81 in 10.0 mi NNE 8.1 mph 21.9 mph N/A   Clear
7:53 PM 66.9 °F 48.0 °F 51% 29.80 in 10.0 mi Calm Calm - N/A   Clear
8:53 PM 61.0 °F 48.9 °F 64% 29.83 in 10.0 mi Variable 3.5 mph - N/A   Clear
9:53 PM 60.1 °F 48.0 °F 64% 29.87 in 10.0 mi East 6.9 mph - N/A   Clear
10:53 PM 53.1 °F 46.9 °F 80% 29.87 in 10.0 mi ENE 4.6 mph - N/A   Clear
11:53 PM 46.9 °F 44.1 °F 90% 29.88 in 10.0 mi Calm Calm - N/A   Clear